Location: Kellogg
(38.0159°N, 90.0546°W)
Time: 08:56:35
(UTC+00:00)

S-56A Canister/Altair - Pass Details

Date: 18 September 2024
Orbit: 636 x 2487 km, 38.9° (Epoch: 09 October)

Event Time Altitude Azimuth Distance (km) Brightness Sun altitude
Rises 00:11:33 0° 251° (WSW) 3,047 12.1 -2.3°
Reaches altitude 10° 00:13:38 10° 250° (WSW) 2,230 11.2 -2.7°
Maximum altitude 00:18:43 79° 164° (SSE) 913 7.9 -3.7°
Drops below altitude 10° 00:26:04 10° 79° (E) 3,165 10.1 -5.2°
Enters shadow 00:27:56 - 79° (ENE) 3,854 10.5 -5.5°
Sets 00:29:32 0° 78° (ENE) 4,437 - -5.8°
